Year,Month,Day,Hour,Minute,Value (Times are PST for temperature in C)
2018,10,20,00,00,7.80
2018,10,20,00,01,7.70
2018,10,20,00,02,7.60
2018,10,20,00,03,7.50
2018,10,20,00,04,7.50
2018,10,20,00,05,7.40
2018,10,20,00,06,7.40
2018,10,20,00,07,7.30
2018,10,20,00,08,7.30
2018,10,20,00,09,7.30
2018,10,20,00,10,7.20
2018,10,20,00,11,7.10
2018,10,20,00,12,7.10
2018,10,20,00,13,7.00
2018,10,20,00,14,7.00
2018,10,20,00,15,7.00
2018,10,20,00,16,7.00
2018,10,20,00,17,7.00
2018,10,20,00,18,7.00
2018,10,20,00,19,7.00
2018,10,20,00,20,7.00
2018,10,20,00,21,6.90
2018,10,20,00,22,6.90
2018,10,20,00,23,6.90
2018,10,20,00,24,6.90
2018,10,20,00,25,6.90
2018,10,20,00,26,6.90
2018,10,20,00,27,6.90
2018,10,20,00,28,6.90
2018,10,20,00,29,6.90
2018,10,20,00,30,6.90
2018,10,20,00,31,6.90
2018,10,20,00,32,6.90
2018,10,20,00,33,7.00
2018,10,20,00,34,7.00
2018,10,20,00,35,7.00
2018,10,20,00,36,7.00
2018,10,20,00,37,7.00
2018,10,20,00,38,7.00
2018,10,20,00,39,7.00
2018,10,20,00,40,7.00
2018,10,20,00,41,7.00
2018,10,20,00,42,7.00
2018,10,20,00,43,7.00
2018,10,20,00,44,7.00
2018,10,20,00,45,7.00
2018,10,20,00,46,6.90
2018,10,20,00,47,6.90
2018,10,20,00,48,6.80
2018,10,20,00,49,6.80
2018,10,20,00,50,6.80
2018,10,20,00,51,6.80
2018,10,20,00,52,6.80
2018,10,20,00,53,6.80
2018,10,20,00,54,6.80
2018,10,20,00,55,6.80
2018,10,20,00,56,6.80
2018,10,20,00,57,6.80
2018,10,20,00,58,6.80
2018,10,20,00,59,6.70
2018,10,20,01,00,6.70
2018,10,20,01,01,6.70
2018,10,20,01,02,6.70
2018,10,20,01,03,6.70
2018,10,20,01,04,6.70
2018,10,20,01,05,6.70
2018,10,20,01,06,6.70
2018,10,20,01,07,6.60
2018,10,20,01,08,6.60
2018,10,20,01,09,6.70
2018,10,20,01,10,6.70
2018,10,20,01,11,6.60
2018,10,20,01,12,6.60
2018,10,20,01,13,6.60
2018,10,20,01,14,6.60
2018,10,20,01,15,6.60
2018,10,20,01,16,6.60
2018,10,20,01,17,6.60
2018,10,20,01,18,6.60
2018,10,20,01,19,6.60
2018,10,20,01,20,6.60
2018,10,20,01,21,6.60
2018,10,20,01,22,6.60
2018,10,20,01,23,6.60
2018,10,20,01,24,6.60
2018,10,20,01,25,6.60
2018,10,20,01,26,6.60
2018,10,20,01,27,6.50
2018,10,20,01,28,6.40
2018,10,20,01,29,6.40
2018,10,20,01,30,6.40
2018,10,20,01,31,6.30
2018,10,20,01,32,6.20
2018,10,20,01,33,6.20
2018,10,20,01,34,6.10
2018,10,20,01,35,6.10
2018,10,20,01,36,6.10
2018,10,20,01,37,6.10
2018,10,20,01,38,6.20
2018,10,20,01,39,6.20
2018,10,20,01,40,6.20
2018,10,20,01,41,6.20
2018,10,20,01,42,6.20
2018,10,20,01,43,6.20
2018,10,20,01,44,6.20
2018,10,20,01,45,6.20
2018,10,20,01,46,6.20
2018,10,20,01,47,6.20
2018,10,20,01,48,6.20
2018,10,20,01,49,6.30
2018,10,20,01,50,6.40
2018,10,20,01,51,6.40
2018,10,20,01,52,6.40
2018,10,20,01,53,6.40
2018,10,20,01,54,6.50
2018,10,20,01,55,6.60
2018,10,20,01,56,6.60
2018,10,20,01,57,6.60
2018,10,20,01,58,6.60
2018,10,20,01,59,6.60
2018,10,20,02,00,6.60
2018,10,20,02,01,6.60
2018,10,20,02,02,6.70
2018,10,20,02,03,6.70
2018,10,20,02,04,6.80
2018,10,20,02,05,6.80
2018,10,20,02,06,6.80
2018,10,20,02,07,6.80
2018,10,20,02,08,6.80
2018,10,20,02,09,6.80
2018,10,20,02,10,6.80
2018,10,20,02,11,6.90
2018,10,20,02,12,6.90
2018,10,20,02,13,6.90
2018,10,20,02,14,6.90
2018,10,20,02,15,6.80
2018,10,20,02,16,6.70
2018,10,20,02,17,6.60
2018,10,20,02,18,6.50
2018,10,20,02,19,6.40
2018,10,20,02,20,6.30
2018,10,20,02,21,6.20
2018,10,20,02,22,6.20
2018,10,20,02,23,6.20
2018,10,20,02,24,6.30
2018,10,20,02,25,6.30
2018,10,20,02,26,6.30
2018,10,20,02,27,6.40
2018,10,20,02,28,6.40
2018,10,20,02,29,6.40
2018,10,20,02,30,6.40
2018,10,20,02,31,6.40
2018,10,20,02,32,6.40
2018,10,20,02,33,6.40
2018,10,20,02,34,6.40
2018,10,20,02,35,6.30
2018,10,20,02,36,6.30
2018,10,20,02,37,6.30
2018,10,20,02,38,6.30
2018,10,20,02,39,6.20
2018,10,20,02,40,6.20
2018,10,20,02,41,6.20
2018,10,20,02,42,6.20
2018,10,20,02,43,6.20
2018,10,20,02,44,6.20
2018,10,20,02,45,6.20
2018,10,20,02,46,6.20
2018,10,20,02,47,6.10
2018,10,20,02,48,6.10
2018,10,20,02,49,6.10
2018,10,20,02,50,6.10
2018,10,20,02,51,6.10
2018,10,20,02,52,6.00
2018,10,20,02,53,6.00
2018,10,20,02,54,6.00
2018,10,20,02,55,6.00
2018,10,20,02,56,6.00
2018,10,20,02,57,6.00
2018,10,20,02,58,6.00
2018,10,20,02,59,6.00
2018,10,20,03,00,6.00
2018,10,20,03,01,5.90
2018,10,20,03,02,5.90
2018,10,20,03,03,5.90
2018,10,20,03,04,5.90
2018,10,20,03,05,5.80
2018,10,20,03,06,5.80
2018,10,20,03,07,5.80
2018,10,20,03,08,5.70
2018,10,20,03,09,5.70
2018,10,20,03,10,5.70
2018,10,20,03,11,5.70
2018,10,20,03,12,5.70
2018,10,20,03,13,5.70
2018,10,20,03,14,5.70
2018,10,20,03,15,5.60
2018,10,20,03,16,5.60
2018,10,20,03,17,5.60
2018,10,20,03,18,5.60
2018,10,20,03,19,5.60
2018,10,20,03,20,5.60
2018,10,20,03,21,5.60
2018,10,20,03,22,5.60
2018,10,20,03,23,5.60
2018,10,20,03,24,5.60
2018,10,20,03,25,5.60
2018,10,20,03,26,5.50
2018,10,20,03,27,5.50
2018,10,20,03,28,5.50
2018,10,20,03,29,5.50
2018,10,20,03,30,5.50
2018,10,20,03,31,5.50
2018,10,20,03,32,5.40
2018,10,20,03,33,5.40
2018,10,20,03,34,5.30
2018,10,20,03,35,5.30
2018,10,20,03,36,5.30
2018,10,20,03,37,5.30
2018,10,20,03,38,5.30
2018,10,20,03,39,5.30
2018,10,20,03,40,5.30
2018,10,20,03,41,5.30
2018,10,20,03,42,5.30
2018,10,20,03,43,5.40
2018,10,20,03,44,5.40
2018,10,20,03,45,5.40
2018,10,20,03,46,5.40
2018,10,20,03,47,5.50
2018,10,20,03,48,5.50
2018,10,20,03,49,5.50
2018,10,20,03,50,5.50
2018,10,20,03,51,5.50
2018,10,20,03,52,5.50
2018,10,20,03,53,5.50
2018,10,20,03,54,5.50
2018,10,20,03,55,5.50
2018,10,20,03,56,5.50
2018,10,20,03,57,5.50
2018,10,20,03,58,5.50
2018,10,20,03,59,5.40
2018,10,20,04,00,5.30
2018,10,20,04,01,5.30
2018,10,20,04,02,5.30
2018,10,20,04,03,5.40
2018,10,20,04,04,5.50
2018,10,20,04,05,5.50
2018,10,20,04,06,5.50
2018,10,20,04,07,5.40
2018,10,20,04,08,5.50
2018,10,20,04,09,5.40
2018,10,20,04,10,5.40
2018,10,20,04,11,5.40
2018,10,20,04,12,5.40
2018,10,20,04,13,5.40
2018,10,20,04,14,5.40
2018,10,20,04,15,5.40
2018,10,20,04,16,5.40
2018,10,20,04,17,5.40
2018,10,20,04,18,5.40
2018,10,20,04,19,5.40
2018,10,20,04,20,5.30
2018,10,20,04,21,5.30
2018,10,20,04,22,5.30
2018,10,20,04,23,5.30
2018,10,20,04,24,5.30
2018,10,20,04,25,5.30
2018,10,20,04,26,5.20
2018,10,20,04,27,5.20
2018,10,20,04,28,5.10
2018,10,20,04,29,5.10
2018,10,20,04,30,5.10
2018,10,20,04,31,5.10
2018,10,20,04,32,5.10
2018,10,20,04,33,5.10
2018,10,20,04,34,5.10
2018,10,20,04,35,5.10
2018,10,20,04,36,5.10
2018,10,20,04,37,5.10
2018,10,20,04,38,5.00
2018,10,20,04,39,4.90
2018,10,20,04,40,4.90
2018,10,20,04,41,4.90
2018,10,20,04,42,4.90
2018,10,20,04,43,5.00
2018,10,20,04,44,5.10
2018,10,20,04,45,5.10
2018,10,20,04,46,5.10
2018,10,20,04,47,5.10
2018,10,20,04,48,5.00
2018,10,20,04,49,4.90
2018,10,20,04,50,4.90
2018,10,20,04,51,4.90
2018,10,20,04,52,4.90
2018,10,20,04,53,4.90
2018,10,20,04,54,4.90
2018,10,20,04,55,5.00
2018,10,20,04,56,5.10
2018,10,20,04,57,5.10
2018,10,20,04,58,5.10
2018,10,20,04,59,5.10
2018,10,20,05,00,5.10
2018,10,20,05,01,5.10
2018,10,20,05,02,5.10
2018,10,20,05,03,5.10
2018,10,20,05,04,5.10
2018,10,20,05,05,5.10
2018,10,20,05,06,5.10
2018,10,20,05,07,5.10
2018,10,20,05,08,5.10
2018,10,20,05,09,5.10
2018,10,20,05,10,5.10
2018,10,20,05,11,5.10
2018,10,20,05,12,5.10
2018,10,20,05,13,5.10
2018,10,20,05,14,5.10
2018,10,20,05,15,5.10
2018,10,20,05,16,5.10
2018,10,20,05,17,5.00
2018,10,20,05,18,4.90
2018,10,20,05,19,4.90
2018,10,20,05,20,4.90
2018,10,20,05,21,4.90
2018,10,20,05,22,4.90
2018,10,20,05,23,4.90
2018,10,20,05,24,4.90
2018,10,20,05,25,4.90
2018,10,20,05,26,4.90
2018,10,20,05,27,5.00
2018,10,20,05,28,5.00
2018,10,20,05,29,5.00
2018,10,20,05,30,5.10
2018,10,20,05,31,5.10
2018,10,20,05,32,5.10
2018,10,20,05,33,5.10
2018,10,20,05,34,5.10
2018,10,20,05,35,5.10
2018,10,20,05,36,5.10
2018,10,20,05,37,5.10
2018,10,20,05,38,5.10
2018,10,20,05,39,5.10
2018,10,20,05,40,5.00
2018,10,20,05,41,4.90
2018,10,20,05,42,4.80
2018,10,20,05,43,4.80
2018,10,20,05,44,4.90
2018,10,20,05,45,4.90
2018,10,20,05,46,4.90
2018,10,20,05,47,4.90
2018,10,20,05,48,4.90
2018,10,20,05,49,4.90
2018,10,20,05,50,4.90
2018,10,20,05,51,4.80
2018,10,20,05,52,4.80
2018,10,20,05,53,4.80
2018,10,20,05,54,4.90
2018,10,20,05,55,4.90
2018,10,20,05,56,4.90
2018,10,20,05,57,4.90
2018,10,20,05,58,4.90
2018,10,20,05,59,4.90
2018,10,20,06,00,4.90
2018,10,20,06,01,4.90
2018,10,20,06,02,4.90
2018,10,20,06,03,4.90
2018,10,20,06,04,4.90
2018,10,20,06,05,4.90
2018,10,20,06,06,4.80
2018,10,20,06,07,4.80
2018,10,20,06,08,4.70
2018,10,20,06,09,4.60
2018,10,20,06,10,4.60
2018,10,20,06,11,4.60
2018,10,20,06,12,4.60
2018,10,20,06,13,4.60
2018,10,20,06,14,4.60
2018,10,20,06,15,4.60
2018,10,20,06,16,4.60
2018,10,20,06,17,4.60
2018,10,20,06,18,4.60
2018,10,20,06,19,4.50
2018,10,20,06,20,4.50
2018,10,20,06,21,4.50
2018,10,20,06,22,4.50
2018,10,20,06,23,4.50
2018,10,20,06,24,4.50
2018,10,20,06,25,4.50
2018,10,20,06,26,4.50
2018,10,20,06,27,4.50
2018,10,20,06,28,4.50
2018,10,20,06,29,4.50
2018,10,20,06,30,4.50
2018,10,20,06,31,4.50
2018,10,20,06,32,4.50
2018,10,20,06,33,4.50
2018,10,20,06,34,4.60
2018,10,20,06,35,4.50
2018,10,20,06,36,4.50
2018,10,20,06,37,4.40
2018,10,20,06,38,4.40
2018,10,20,06,39,4.30
2018,10,20,06,40,4.20
2018,10,20,06,41,4.20
2018,10,20,06,42,4.20
2018,10,20,06,43,4.20
2018,10,20,06,44,4.10
2018,10,20,06,45,4.10
2018,10,20,06,46,4.10
2018,10,20,06,47,4.10
2018,10,20,06,48,4.10
2018,10,20,06,49,4.10
2018,10,20,06,50,4.10
2018,10,20,06,51,4.20
2018,10,20,06,52,4.30
2018,10,20,06,53,4.40
2018,10,20,06,54,4.40
2018,10,20,06,55,4.40
2018,10,20,06,56,4.50
2018,10,20,06,57,4.50
2018,10,20,06,58,4.60
2018,10,20,06,59,4.60
2018,10,20,07,00,4.60
2018,10,20,07,01,4.50
2018,10,20,07,02,4.50
2018,10,20,07,03,4.50
2018,10,20,07,04,4.60
2018,10,20,07,05,4.60
2018,10,20,07,06,4.60
2018,10,20,07,07,4.60
2018,10,20,07,08,4.70
2018,10,20,07,09,4.70
2018,10,20,07,10,4.80
2018,10,20,07,11,4.80
2018,10,20,07,12,4.80
2018,10,20,07,13,4.80
2018,10,20,07,14,4.90
2018,10,20,07,15,4.90
2018,10,20,07,16,4.90
2018,10,20,07,17,4.90
2018,10,20,07,18,4.90
2018,10,20,07,19,4.90
2018,10,20,07,20,4.90
2018,10,20,07,21,4.90
2018,10,20,07,22,5.00
2018,10,20,07,23,5.10
2018,10,20,07,24,5.10
2018,10,20,07,25,5.10
2018,10,20,07,26,5.10
2018,10,20,07,27,5.20
2018,10,20,07,28,5.30
2018,10,20,07,29,5.30
2018,10,20,07,30,5.30
2018,10,20,07,31,5.40
2018,10,20,07,32,5.50
2018,10,20,07,33,5.50
2018,10,20,07,34,5.50
2018,10,20,07,35,5.60
2018,10,20,07,36,5.60
2018,10,20,07,37,5.60
2018,10,20,07,38,5.60
2018,10,20,07,39,5.50
2018,10,20,07,40,5.50
2018,10,20,07,41,5.50
2018,10,20,07,42,5.50
2018,10,20,07,43,5.50
2018,10,20,07,44,5.60
2018,10,20,07,45,5.60
2018,10,20,07,46,5.70
2018,10,20,07,47,5.70
2018,10,20,07,48,5.70
2018,10,20,07,49,5.60
2018,10,20,07,50,5.60
2018,10,20,07,51,5.60
2018,10,20,07,52,5.50
2018,10,20,07,53,5.50
2018,10,20,07,54,5.50
2018,10,20,07,55,5.50
2018,10,20,07,56,5.60
2018,10,20,07,57,5.70
2018,10,20,07,58,5.70
2018,10,20,07,59,5.80
2018,10,20,08,00,5.80
2018,10,20,08,01,5.90
2018,10,20,08,02,5.90
2018,10,20,08,03,6.00
2018,10,20,08,04,6.00
2018,10,20,08,05,6.10
2018,10,20,08,06,6.10
2018,10,20,08,07,6.10
2018,10,20,08,08,6.10
2018,10,20,08,09,6.20
2018,10,20,08,10,6.20
2018,10,20,08,11,6.20
2018,10,20,08,12,6.20
2018,10,20,08,13,6.30
2018,10,20,08,14,6.30
2018,10,20,08,15,6.40
2018,10,20,08,16,6.40
2018,10,20,08,17,6.40
2018,10,20,08,18,6.60
2018,10,20,08,19,6.60
2018,10,20,08,20,6.60
2018,10,20,08,21,6.70
2018,10,20,08,22,6.70
2018,10,20,08,23,6.80
2018,10,20,08,24,6.80
2018,10,20,08,25,6.90
2018,10,20,08,26,7.00
2018,10,20,08,27,7.00
2018,10,20,08,28,7.00
2018,10,20,08,29,7.10
2018,10,20,08,30,7.20
2018,10,20,08,31,7.30
2018,10,20,08,32,7.30
2018,10,20,08,33,7.30
2018,10,20,08,34,7.30
2018,10,20,08,35,7.30
2018,10,20,08,36,7.40
2018,10,20,08,37,7.40
2018,10,20,08,38,7.50
2018,10,20,08,39,7.60
2018,10,20,08,40,7.70
2018,10,20,08,41,7.80
2018,10,20,08,42,7.80
2018,10,20,08,43,7.90
2018,10,20,08,44,7.90
2018,10,20,08,45,8.00
2018,10,20,08,46,8.00
2018,10,20,08,47,8.10
2018,10,20,08,48,8.10
2018,10,20,08,49,8.20
2018,10,20,08,50,8.20
2018,10,20,08,51,8.20
2018,10,20,08,52,8.30
2018,10,20,08,53,8.30
2018,10,20,08,54,8.40
2018,10,20,08,55,8.40
2018,10,20,08,56,8.50
2018,10,20,08,57,8.50
2018,10,20,08,58,8.50
2018,10,20,08,59,8.60
2018,10,20,09,00,8.60
2018,10,20,09,01,8.70
2018,10,20,09,02,8.70
2018,10,20,09,03,8.70
2018,10,20,09,04,8.70
2018,10,20,09,05,8.70
2018,10,20,09,06,8.80
2018,10,20,09,07,8.80
2018,10,20,09,08,8.80
2018,10,20,09,09,8.80
2018,10,20,09,10,8.90
2018,10,20,09,11,8.90
2018,10,20,09,12,8.90
2018,10,20,09,13,8.90
2018,10,20,09,14,8.90
2018,10,20,09,15,8.90
2018,10,20,09,16,8.90
2018,10,20,09,17,9.00
2018,10,20,09,18,9.00
2018,10,20,09,19,9.00
2018,10,20,09,20,9.00
2018,10,20,09,21,9.00
2018,10,20,09,22,9.00
2018,10,20,09,23,9.10
2018,10,20,09,24,9.10
2018,10,20,09,25,9.10
2018,10,20,09,26,9.10
2018,10,20,09,27,9.10
2018,10,20,09,28,9.10
2018,10,20,09,29,9.10
2018,10,20,09,30,9.10
2018,10,20,09,31,9.20
2018,10,20,09,32,9.20
2018,10,20,09,33,9.20
2018,10,20,09,34,9.20
2018,10,20,09,35,9.20
2018,10,20,09,36,9.20
2018,10,20,09,37,9.20
2018,10,20,09,38,9.20
2018,10,20,09,39,9.20
2018,10,20,09,40,9.20
2018,10,20,09,41,9.20
2018,10,20,09,42,9.20
2018,10,20,09,43,9.20
2018,10,20,09,44,9.20
2018,10,20,09,45,9.20
2018,10,20,09,46,9.30
2018,10,20,09,47,9.30
2018,10,20,09,48,9.30
2018,10,20,09,49,9.30
2018,10,20,09,50,9.30
2018,10,20,09,51,9.30
2018,10,20,09,52,9.40
2018,10,20,09,53,9.40
2018,10,20,09,54,9.40
2018,10,20,09,55,9.40
2018,10,20,09,56,9.40
2018,10,20,09,57,9.40
2018,10,20,09,58,9.50
2018,10,20,09,59,9.50
2018,10,20,10,00,9.50
2018,10,20,10,01,9.50
2018,10,20,10,02,9.50
2018,10,20,10,03,9.60
2018,10,20,10,04,9.60
2018,10,20,10,05,9.60
2018,10,20,10,06,9.60
2018,10,20,10,07,9.60
2018,10,20,10,08,9.60
2018,10,20,10,09,9.70
2018,10,20,10,10,9.70
2018,10,20,10,11,9.70
2018,10,20,10,12,9.70
2018,10,20,10,13,9.70
2018,10,20,10,14,9.70
2018,10,20,10,15,9.70
2018,10,20,10,16,9.70
2018,10,20,10,17,9.70
2018,10,20,10,18,9.70
2018,10,20,10,19,9.70
2018,10,20,10,20,9.70
2018,10,20,10,21,9.70
2018,10,20,10,22,9.70
2018,10,20,10,23,9.70
2018,10,20,10,24,9.70
2018,10,20,10,25,9.70
2018,10,20,10,26,9.70
2018,10,20,10,27,9.70
2018,10,20,10,28,9.70
2018,10,20,10,29,9.70
2018,10,20,10,30,9.70
2018,10,20,10,31,9.70
2018,10,20,10,32,9.80
2018,10,20,10,33,9.80
2018,10,20,10,34,9.80
2018,10,20,10,35,9.80
2018,10,20,10,36,9.80
2018,10,20,10,37,9.80
2018,10,20,10,38,9.80
2018,10,20,10,39,9.80
2018,10,20,10,40,9.80
2018,10,20,10,41,9.70
2018,10,20,10,42,9.70
2018,10,20,10,43,9.70
2018,10,20,10,44,9.70
2018,10,20,10,45,9.70
2018,10,20,10,46,9.70
2018,10,20,10,47,9.80
2018,10,20,10,48,9.80
2018,10,20,10,49,9.80
2018,10,20,10,50,9.80
2018,10,20,10,51,9.90
2018,10,20,10,52,9.90
2018,10,20,10,53,9.90
2018,10,20,10,54,9.90
2018,10,20,10,55,9.90
2018,10,20,10,56,9.90
2018,10,20,10,57,9.90
2018,10,20,10,58,9.90
2018,10,20,10,59,9.90
2018,10,20,11,00,9.90
2018,10,20,11,01,9.80
2018,10,20,11,02,9.90
2018,10,20,11,03,9.90
2018,10,20,11,04,9.80
2018,10,20,11,05,9.80
2018,10,20,11,06,9.80
2018,10,20,11,07,9.80
2018,10,20,11,08,9.80
2018,10,20,11,09,9.80
2018,10,20,11,10,9.80
2018,10,20,11,11,9.80
2018,10,20,11,12,9.80
2018,10,20,11,13,9.90
2018,10,20,11,14,9.90
2018,10,20,11,15,9.90
2018,10,20,11,16,9.90
2018,10,20,11,17,9.90
2018,10,20,11,18,9.90
2018,10,20,11,19,9.90
2018,10,20,11,20,9.90
2018,10,20,11,21,9.90
2018,10,20,11,22,9.90
2018,10,20,11,23,9.90
2018,10,20,11,24,9.90
2018,10,20,11,25,9.90
2018,10,20,11,26,9.90
2018,10,20,11,27,9.90
2018,10,20,11,28,10.00
2018,10,20,11,29,10.10
2018,10,20,11,30,10.10
2018,10,20,11,31,10.10
2018,10,20,11,32,10.10
2018,10,20,11,33,10.10
2018,10,20,11,34,10.10
2018,10,20,11,35,10.10
2018,10,20,11,36,10.10
2018,10,20,11,37,10.10
2018,10,20,11,38,10.10
2018,10,20,11,39,10.10
2018,10,20,11,40,10.10
2018,10,20,11,41,10.10
2018,10,20,11,42,10.10
2018,10,20,11,43,10.10
2018,10,20,11,44,10.10
2018,10,20,11,45,10.10
2018,10,20,11,46,10.10
2018,10,20,11,47,10.10
2018,10,20,11,48,10.20
2018,10,20,11,49,10.20
2018,10,20,11,50,10.20
2018,10,20,11,51,10.10
2018,10,20,11,52,10.10
2018,10,20,11,53,10.10
2018,10,20,11,54,10.10
2018,10,20,11,55,10.10
2018,10,20,11,56,10.10
2018,10,20,11,57,10.10
2018,10,20,11,58,10.10
2018,10,20,11,59,10.10
2018,10,20,12,00,10.20
2018,10,20,12,01,10.20
2018,10,20,12,02,10.30
2018,10,20,12,03,10.30
2018,10,20,12,04,10.30
2018,10,20,12,05,10.30
2018,10,20,12,06,10.30
2018,10,20,12,07,10.40
2018,10,20,12,08,10.40
2018,10,20,12,09,10.40
2018,10,20,12,10,10.40
2018,10,20,12,11,10.40
2018,10,20,12,12,10.40
2018,10,20,12,13,10.40
2018,10,20,12,14,10.50
2018,10,20,12,15,10.60
2018,10,20,12,16,10.70
2018,10,20,12,17,10.80
2018,10,20,12,18,10.80
2018,10,20,12,19,10.90
2018,10,20,12,20,10.90
2018,10,20,12,21,10.90
2018,10,20,12,22,10.90
2018,10,20,12,23,10.90
2018,10,20,12,24,10.90
2018,10,20,12,25,10.90
2018,10,20,12,26,11.00
2018,10,20,12,27,11.10
2018,10,20,12,28,11.10
2018,10,20,12,29,11.10
2018,10,20,12,30,11.10
2018,10,20,12,31,11.10
2018,10,20,12,32,11.10
2018,10,20,12,33,11.10
2018,10,20,12,34,11.10
2018,10,20,12,35,11.10
2018,10,20,12,36,11.10
2018,10,20,12,37,11.10
2018,10,20,12,38,11.10
2018,10,20,12,39,11.10
2018,10,20,12,40,11.10
2018,10,20,12,41,11.10
2018,10,20,12,42,11.10
2018,10,20,12,43,11.10
2018,10,20,12,44,11.10
2018,10,20,12,45,11.10
2018,10,20,12,46,11.10
2018,10,20,12,47,11.20
2018,10,20,12,48,11.20
2018,10,20,12,49,11.20
2018,10,20,12,50,11.30
2018,10,20,12,51,11.40
2018,10,20,12,52,11.40
2018,10,20,12,53,11.50
2018,10,20,12,54,11.60
2018,10,20,12,55,11.60
2018,10,20,12,56,11.60
2018,10,20,12,57,11.50
2018,10,20,12,58,11.40
2018,10,20,12,59,11.40
2018,10,20,13,00,11.40
2018,10,20,13,01,11.40
2018,10,20,13,02,11.40
2018,10,20,13,03,11.40
2018,10,20,13,04,11.40
2018,10,20,13,05,11.40
2018,10,20,13,06,11.40
2018,10,20,13,07,11.50
2018,10,20,13,08,11.60
2018,10,20,13,09,11.70
2018,10,20,13,10,11.70
2018,10,20,13,11,11.80
2018,10,20,13,12,11.80
2018,10,20,13,13,11.80
2018,10,20,13,14,11.80
2018,10,20,13,15,11.90
2018,10,20,13,16,12.00
2018,10,20,13,17,12.10
2018,10,20,13,18,12.20
2018,10,20,13,19,12.30
2018,10,20,13,20,12.30
2018,10,20,13,21,12.40
2018,10,20,13,22,12.50
2018,10,20,13,23,12.50
2018,10,20,13,24,12.50
2018,10,20,13,25,12.50
2018,10,20,13,26,12.50
2018,10,20,13,27,12.40
2018,10,20,13,28,12.40
2018,10,20,13,29,12.40
2018,10,20,13,30,12.40
2018,10,20,13,31,12.50
2018,10,20,13,32,12.50
2018,10,20,13,33,12.50
2018,10,20,13,34,12.50
2018,10,20,13,35,12.50
2018,10,20,13,36,12.60
2018,10,20,13,37,12.60
2018,10,20,13,38,12.60
2018,10,20,13,39,12.60
2018,10,20,13,40,12.60
2018,10,20,13,41,12.60
2018,10,20,13,42,12.60
2018,10,20,13,43,12.70
2018,10,20,13,44,12.70
2018,10,20,13,45,12.80
2018,10,20,13,46,12.80
2018,10,20,13,47,12.80
2018,10,20,13,48,12.80
2018,10,20,13,49,12.80
2018,10,20,13,50,12.90
2018,10,20,13,51,12.90
2018,10,20,13,52,13.00
2018,10,20,13,53,13.10
2018,10,20,13,54,13.10
2018,10,20,13,55,13.10
2018,10,20,13,56,13.20
2018,10,20,13,57,13.30
2018,10,20,13,58,13.30
2018,10,20,13,59,13.30
2018,10,20,14,00,13.30
2018,10,20,14,01,13.30
2018,10,20,14,02,13.30
2018,10,20,14,03,13.40
2018,10,20,14,04,13.40
2018,10,20,14,05,13.40
2018,10,20,14,06,13.50
2018,10,20,14,07,13.50
2018,10,20,14,08,13.60
2018,10,20,14,09,13.60
2018,10,20,14,10,13.60
2018,10,20,14,11,13.60
2018,10,20,14,12,13.70
2018,10,20,14,13,13.70
2018,10,20,14,14,13.70
2018,10,20,14,15,13.70
2018,10,20,14,16,13.70
2018,10,20,14,17,13.80
2018,10,20,14,18,13.80
2018,10,20,14,19,13.70
2018,10,20,14,20,13.70
2018,10,20,14,21,13.70
2018,10,20,14,22,13.70
2018,10,20,14,23,13.70
2018,10,20,14,24,13.70
2018,10,20,14,25,13.80
2018,10,20,14,26,13.80
2018,10,20,14,27,13.80
2018,10,20,14,28,13.90
2018,10,20,14,29,14.00
2018,10,20,14,30,14.00
2018,10,20,14,31,14.10
2018,10,20,14,32,14.20
2018,10,20,14,33,14.20
2018,10,20,14,34,14.20
2018,10,20,14,35,14.20
2018,10,20,14,36,14.30
2018,10,20,14,37,14.40
2018,10,20,14,38,14.40
2018,10,20,14,39,14.40
2018,10,20,14,40,14.40
2018,10,20,14,41,14.40
2018,10,20,14,42,14.50
2018,10,20,14,43,14.50
2018,10,20,14,44,14.50
2018,10,20,14,45,14.60
2018,10,20,14,46,14.60
2018,10,20,14,47,14.60
2018,10,20,14,48,14.60
2018,10,20,14,49,14.60
2018,10,20,14,50,14.70
2018,10,20,14,51,14.80
2018,10,20,14,52,14.80
2018,10,20,14,53,14.90
2018,10,20,14,54,14.90
2018,10,20,14,55,14.90
2018,10,20,14,56,14.90
2018,10,20,14,57,14.90
2018,10,20,14,58,14.90
2018,10,20,14,59,14.90
2018,10,20,15,00,14.90
2018,10,20,15,01,14.90
2018,10,20,15,02,14.90
2018,10,20,15,03,14.90
2018,10,20,15,04,14.90
2018,10,20,15,05,14.90
2018,10,20,15,06,14.90
2018,10,20,15,07,14.80
2018,10,20,15,08,14.80
2018,10,20,15,09,14.80
2018,10,20,15,10,14.80
2018,10,20,15,11,14.80
2018,10,20,15,12,14.80
2018,10,20,15,13,14.80
2018,10,20,15,14,14.80
2018,10,20,15,15,14.90
2018,10,20,15,16,14.90
2018,10,20,15,17,14.90
2018,10,20,15,18,14.90
2018,10,20,15,19,14.90
2018,10,20,15,20,14.90
2018,10,20,15,21,14.90
2018,10,20,15,22,14.90
2018,10,20,15,23,14.90
2018,10,20,15,24,14.90
2018,10,20,15,25,14.80
2018,10,20,15,26,14.80
2018,10,20,15,27,14.80
2018,10,20,15,28,14.80
2018,10,20,15,29,14.70
2018,10,20,15,30,14.60
2018,10,20,15,31,14.50
2018,10,20,15,32,14.50
2018,10,20,15,33,14.40
2018,10,20,15,34,14.40
2018,10,20,15,35,14.40
2018,10,20,15,36,14.40
2018,10,20,15,37,14.40
2018,10,20,15,38,14.40
2018,10,20,15,39,14.40
2018,10,20,15,40,14.40
2018,10,20,15,41,14.40
2018,10,20,15,42,14.40
2018,10,20,15,43,14.40
2018,10,20,15,44,14.40
2018,10,20,15,45,14.40
2018,10,20,15,46,14.40
2018,10,20,15,47,14.40
2018,10,20,15,48,14.40
2018,10,20,15,49,14.50
2018,10,20,15,50,14.50
2018,10,20,15,51,14.60
2018,10,20,15,52,14.60
2018,10,20,15,53,14.70
2018,10,20,15,54,14.80
2018,10,20,15,55,14.80
2018,10,20,15,56,14.70
2018,10,20,15,57,14.70
2018,10,20,15,58,14.70
2018,10,20,15,59,14.80
2018,10,20,16,00,14.70
2018,10,20,16,01,14.70
2018,10,20,16,02,14.60
2018,10,20,16,03,14.60
2018,10,20,16,04,14.60
2018,10,20,16,05,14.50
2018,10,20,16,06,14.50
2018,10,20,16,07,14.40
2018,10,20,16,08,14.40
2018,10,20,16,09,14.40
2018,10,20,16,10,14.40
2018,10,20,16,11,14.40
2018,10,20,16,12,14.50
2018,10,20,16,13,14.50
2018,10,20,16,14,14.50
2018,10,20,16,15,14.40
2018,10,20,16,16,14.40
2018,10,20,16,17,14.30
2018,10,20,16,18,14.30
2018,10,20,16,19,14.20
2018,10,20,16,20,14.20
2018,10,20,16,21,14.20
2018,10,20,16,22,14.20
2018,10,20,16,23,14.20
2018,10,20,16,24,14.20
2018,10,20,16,25,14.20
2018,10,20,16,26,14.20
2018,10,20,16,27,14.20
2018,10,20,16,28,14.20
2018,10,20,16,29,14.20
2018,10,20,16,30,14.20
2018,10,20,16,31,14.20
2018,10,20,16,32,14.20
2018,10,20,16,33,14.20
2018,10,20,16,34,14.20
2018,10,20,16,35,14.20
2018,10,20,16,36,14.20
2018,10,20,16,37,14.20
2018,10,20,16,38,14.20
2018,10,20,16,39,14.20
2018,10,20,16,40,14.30
2018,10,20,16,41,14.20
2018,10,20,16,42,14.20
2018,10,20,16,43,14.20
2018,10,20,16,44,14.20
2018,10,20,16,45,14.20
2018,10,20,16,46,14.20
2018,10,20,16,47,14.20
2018,10,20,16,48,14.10
2018,10,20,16,49,14.10
2018,10,20,16,50,14.00
2018,10,20,16,51,14.00
2018,10,20,16,52,14.00
2018,10,20,16,53,14.00
2018,10,20,16,54,14.00
2018,10,20,16,55,13.90
2018,10,20,16,56,13.90
2018,10,20,16,57,13.90
2018,10,20,16,58,13.80
2018,10,20,16,59,13.80
2018,10,20,17,00,13.70
2018,10,20,17,01,13.70
2018,10,20,17,02,13.70
2018,10,20,17,03,13.70
2018,10,20,17,04,13.70
2018,10,20,17,05,13.70
2018,10,20,17,06,13.70
2018,10,20,17,07,13.70
2018,10,20,17,08,13.70
2018,10,20,17,09,13.70
2018,10,20,17,10,13.70
2018,10,20,17,11,13.70
2018,10,20,17,12,13.80
2018,10,20,17,13,13.80
2018,10,20,17,14,13.80
2018,10,20,17,15,13.80
2018,10,20,17,16,13.80
2018,10,20,17,17,13.80
2018,10,20,17,18,13.80
2018,10,20,17,19,13.70
2018,10,20,17,20,13.70
2018,10,20,17,21,13.70
2018,10,20,17,22,13.70
2018,10,20,17,23,13.70
2018,10,20,17,24,13.70
2018,10,20,17,25,13.70
2018,10,20,17,26,13.60
2018,10,20,17,27,13.60
2018,10,20,17,28,13.50
2018,10,20,17,29,13.50
2018,10,20,17,30,13.40
2018,10,20,17,31,13.40
2018,10,20,17,32,13.40
2018,10,20,17,33,13.30
2018,10,20,17,34,13.30
2018,10,20,17,35,13.30
2018,10,20,17,36,13.30
2018,10,20,17,37,13.30
2018,10,20,17,38,13.30
2018,10,20,17,39,13.30
2018,10,20,17,40,13.30
2018,10,20,17,41,13.30
2018,10,20,17,42,13.20
2018,10,20,17,43,13.20
2018,10,20,17,44,13.10
2018,10,20,17,45,13.10
2018,10,20,17,46,13.10
2018,10,20,17,47,13.00
2018,10,20,17,48,13.00
2018,10,20,17,49,12.90